Regional Weather Roundup
Issued by NWS

Home | Current Version | Previous Version | Graphics & Text | Print | Product List | Glossary On
Versions: 1 2 3 4 5 6 7 8 9 10 11 12 13 14 15 16 17 18 19 20 21 22 23 24 25 26 27 28 29 30 31 32 33 34 35 36 37 38 39 40 41 42 43 44 45 46 47 48 49 50
000
ASUS45 KCYS 221010
RWRWY

WYOMING REGIONAL WEATHER ROUNDUP
NATIONAL WEATHER SERVICE CHEYENNE WY
300 AM MST WED NOV 22 2017

NOTE:  "FAIR" INDICATES FEW OR NO CLOUDS BELOW 12,000 FEET
WITH NO SIGNIFICANT WEATHER AND/OR OBSTRUCTIONS TO VISIBILITY.

WYZ001-221100-
YELLOWSTONE NATIONAL PARK

CITY           SKY/WX    TMP DP  RH WIND       PRES   REMARKS
LK YELLOWSTONE   N/A     35  35 100 CALM      30.37S
W YELLOWSTONE  NOT AVBL

$$
WYZ002>013-054>058-071-098>099-221100-
NORTHERN WYOMING

CITY           SKY/WX    TMP DP  RH WIND       PRES   REMARKS
JACKSON        LGT RAIN  41  39  93 E5        30.36R
CODY           FAIR      57  36  45 NW12G21   30.16R
GREYBULL       FAIR      31  28  89 CALM      30.18R
WORLAND        FAIR      27  27 100 SW3       30.17S
SHERIDAN       FAIR      30  28  92 CALM      30.04S
BUFFALO        FAIR      43  19  38 W8        30.08R
GILLETTE       FAIR      48  28  46 SW17      30.06F
HULETT         FAIR      41  27  56 SW12      30.07F
NEWCASTLE      FAIR      30  27  86 CALM      30.13S

$$
WYZ014>020-022>026-101>103-221100-
CENTRAL WYOMING

CITY           SKY/WX    TMP DP  RH WIND       PRES   REMARKS
BIG PINEY      LGT RAIN  34  34 100 CALM      30.40R
PINEDALE       CLOUDY    32  32 100 CALM      30.41S
DUBOIS         CLOUDY    41  34  75 N8G18     30.29R
LANDER         FAIR      38  29  70 SE6       30.20F WCI  33
RIVERTON       FAIR      39  30  70 SW9       30.21F WCI  33
CASPER         FAIR      44  33  65 SW13      30.20S
DOUGLAS        FAIR      28  27  96 E5        30.17R WCI  23

$$
WYZ021-027>030-104>119-221100-
SOUTHERN WYOMING

CITY           SKY/WX    TMP DP  RH WIND       PRES   REMARKS
EVANSTON       CLOUDY    40  36  86 SW10      30.45R WCI  33
KEMMERER       CLOUDY    37  36  93 SW5       30.43S WCI  34
FORT BRIDGER   CLOUDY    45  37  73 W7        30.46S
ROCK SPRINGS   MOCLDY    43  34  70 SW15      30.39F
DIXON          CLOUDY    35  33  92 CALM      30.44S
RAWLINS        MOCLDY    41  35  79 W21       30.35R
SARATOGA       CLOUDY    41  34  75 W7        30.37S
LARAMIE        FAIR      40  32  73 SW20      30.29S WCI  30
CHEYENNE       MOCLDY    47  31  53 NW6       30.23S
TORRINGTON     FAIR      32  28  85 CALM      30.17S
PINE BLUFFS    FAIR      32  32 100 MISG      30.22S

$$



USA.gov is the U.S. government's official web portal to all federal, state and local government web resources and services.